[[{"header":{"parameterUnit":"m.s-1","parameterCategory":1,"la1":30.2991,"la2":30.254,"lo1":-89.0895,"lo2":-89.0444,"dy":0.0017,"dx":0.0017,"nx":28,"ny":28,"refTime":"2024-07-25T21:00:00:Z","depth":0,"parameterNumber":2,"parameterNumberName":"U-component_of_WINDS"},"data":[0,0,0,0,0,0,0,0,0,0,0,0,0,0,0,0,0,0,0,0,0,0,0,0,0,0,0,0,0,0,0,0,0,0,0,0,0,0,0,0,0,0,0,0,0,0,0,0,0,0,0,0,0,0,0,0,0,0,0.3265,0.3266,0,0.3392,0.3394,0.3395,0.3455,0.3455,0.3455,0.3455,0.3586,0.359,0.3593,0,0,0,0,0,0,0,0,0,0,0,0,0,0.3071,0.3074,0.3265,0.3266,0.3268,0.3392,0.3394,0.3396,0.3455,0.3455,0.3455,0.3455,0.3585,0.3589,0.3593,0,0,0,0,0,0,0,0,0,0,0,0,0,0.3172,0.3075,0.3264,0.3313,0.3318,0.3392,0.3394,0.3396,0.3455,0.3455,0.3455,0.3455,0.3583,0.3589,0.3594,0.3629,0,0,0.361,0.3613,0,0,0,0,0,0,0,0,0.3167,0.3179,0.3304,0.3309,0.3316,0.3408,0.3374,0.3474,0.3455,0.3403,0.3455,0.3455,0.3527,0.3537,0.3561,0.3635,0.3641,0.3611,0.3614,0.3616,0.3618,0,0,0,0,0,0,0,0.3159,0.3174,0.3315,0.3306,0.3313,0.3327,0.3342,0.3393,0.3464,0.3408,0.3412,0.3427,0.353,0.3556,0.3565,0.3643,0.3611,0.3615,0.3619,0.3621,0.3751,0.3752,0,0,0,0,0,0,0.3145,0.3168,0.3311,0.3319,0.3239,0.3331,0.3347,0.3378,0.3464,0.3477,0.3427,0.3429,0.3547,0.3558,0.3569,0.3616,0.3616,0.3621,0.3624,0.3751,0.3751,0.3752,0,0,0,0,0,0,0.314,0.3157,0.3306,0.3245,0.3265,0.3334,0.3369,0.3381,0.3407,0.3478,0.3491,0.344,0.3547,0.3562,0.3614,0.3621,0.3624,0.3629,0.3751,0.3751,0.3752,0.3709,0,0,0,0,0,0,0.3134,0.3155,0.317,0.3245,0.3268,0.3348,0.337,0.3384,0.3416,0.342,0.3494,0.3506,0.3548,0.3605,0.3619,0.3629,0.3633,0.375,0.3751,0.3751,0.371,0.3708,0.3706,0,0,0,0,0,0.3127,0.3153,0.317,0.3187,0.3288,0.3349,0.3362,0.341,0.3416,0.3431,0.3477,0.3504,0.3618,0.361,0.3626,0.3637,0.375,0.3751,0.3751,0.3711,0.3708,0.3706,0,0,0,0,0,0,0.3077,0.3164,0.3184,0.3234,0.3284,0.3359,0.3379,0.3406,0.3454,0.3456,0.3513,0.353,0.3576,0.3612,0.3602,0.3675,0.3687,0.369,0.365,0.3649,0.3647,0.3637,0.3637,0,0,0,0,0,0.3072,0.3114,0.3188,0.3225,0.3249,0.3309,0.3338,0.337,0.3424,0.3445,0.3494,0.3545,0.3592,0.3622,0.367,0.3715,0.3732,0.3731,0.3729,0.3727,0.3729,0.3755,0.3755,0.3754,0.3754,0.3754,0,0,0.3062,0.3114,0.3138,0.3216,0.3258,0.3301,0.3327,0.3371,0.3403,0.3452,0.3504,0.3541,0.3601,0.365,0.3674,0.3681,0.3733,0.3727,0.3725,0.3729,0.3756,0.3756,0.3756,0.3754,0.3754,0.3754,0,0,0.3065,0.3109,0.3145,0.3186,0.3249,0.3289,0.3297,0.3368,0.3395,0.3447,0.3485,0.3523,0.3603,0.3645,0.3676,0.3692,0.3719,0.3706,0.3696,0.372,0.372,0.3721,0.3726,0.3727,0.3708,0.3708,0.3708,0,0.3044,0.311,0.316,0.3201,0.3234,0.328,0.3316,0.3353,0.3429,0.345,0.3457,0.3558,0.3602,0.366,0.3664,0.3688,0.3699,0.3698,0.3716,0.3717,0.3718,0.3724,0.3726,0.3706,0.3706,0.3707,0.3707,0,0.3081,0.3126,0.3147,0.3218,0.3253,0.3292,0.3347,0.3376,0.3405,0.3444,0.3496,0.355,0.3608,0.3624,0.3653,0.3686,0.3689,0.3705,0.3718,0.3715,0.3722,0.3724,0.3703,0.3704,0.3705,0.3705,0,0,0.3058,0.3154,0.3161,0.3194,0.3266,0.3301,0.3341,0.3398,0.3422,0.3471,0.3506,0.3572,0.3587,0.3623,0.3656,0.3677,0.3686,0.3691,0.3693,0.3688,0.3724,0.3712,0.3714,0.3703,0.3704,0.3704,0.3719,0,0.3071,0.3145,0.319,0.3246,0.3287,0.333,0.3364,0.3412,0.3448,0.3488,0.3529,0.3575,0.3591,0.3613,0.3636,0.368,0.3694,0.3679,0.3736,0.3737,0.372,0.3717,0.3704,0.3716,0.3722,0.3723,0.3723,0,0.3096,0.3144,0.3204,0.327,0.3289,0.332,0.3375,0.3412,0.3466,0.3492,0.353,0.3563,0.3606,0.3614,0.3674,0.3663,0.3688,0.3713,0.3715,0.3722,0.373,0.3724,0.3721,0.3723,0.3727,0.3727,0.3727,0,0.3073,0.3152,0.3198,0.3225,0.3303,0.3323,0.3356,0.341,0.3441,0.3489,0.3509,0.3562,0.359,0.3629,0.3676,0.3677,0.373,0.3742,0.3752,0.3751,0.3762,0.3761,0.3763,0.3778,0.3778,0.3778,0.3778,0,0.3083,0.3118,0.3189,0.3217,0.3256,0.3307,0.3345,0.3382,0.3429,0.3464,0.3504,0.3537,0.3596,0.3635,0.3671,0.3714,0.3727,0.3748,0.3758,0.3745,0.3742,0.3763,0.3763,0.3778,0.3778,0.3778,0.3778,0,0.3064,0.3113,0.3166,0.3235,0.3253,0.3279,0.3338,0.3367,0.3404,0.3449,0.3462,0.3522,0.357,0.362,0.3685,0.3709,0.3751,0.3764,0.3733,0.3738,0.3745,0.3744,0.3761,0.3765,0.3776,0.3776,0.3776,0,0.3068,0.3095,0.3167,0.3193,0.3226,0.3268,0.33,0.335,0.3381,0.3443,0.3464,0.3515,0.3559,0.3633,0.3682,0.3732,0.3746,0.3749,0.3754,0.374,0.3746,0.3744,0.3747,0.3747,0.3747,0.3746,0.3746,0,0.3068,0.3091,0.3135,0.3186,0.3223,0.3266,0.3311,0.333,0.3389,0.3421,0.3471,0.3504,0.357,0.362,0.3675,0.3709,0.3737,0.3744,0.3749,0.3736,0.3717,0.3727,0.3728,0.3743,0.3744,0.3744,0.3744,0.3744,0.3061,0.3087,0.3141,0.3188,0.3227,0.3267,0.3297,0.3338,0.338,0.3438,0.3465,0.3514,0.3566,0.3643,0.3676,0.3715,0.3723,0.373,0.3732,0.3733,0.373,0.371,0.3725,0.3725,0.3726,0.3726,0.3726,0,0.3064,0.31,0.3143,0.3204,0.324,0.3263,0.3313,0.3342,0.3385,0.3431,0.3472,0.3528,0.3576,0.3628,0.3679,0.37,0.3714,0.3712,0.3711,0.3718,0.372,0.3711,0.37,0.37,0.37,0.37,0.37,0.37,0.3069,0.3114,0.3143,0.3207,0.3243,0.3292,0.3318,0.3355,0.3392,0.3453,0.3493,0.3526,0.3574,0.3629,0.3674,0.3688,0.3704,0.3698,0.3716,0.3717,0.3719,0.372,0.3712,0.3702,0.3702,0.3711,0.3712,0.3712]},{"header":{"parameterUnit":"m.s-1","parameterCategory":1,"la1":30.2991,"la2":30.254,"lo1":-89.0895,"lo2":-89.0444,"dy":0.0017,"dx":0.0017,"nx":28,"ny":28,"refTime":"2024-07-25T21:00:00:Z","depth":0,"parameterNumber":3,"parameterNumberName":"V-component_of_WINDS"},"data":[0,0,0,0,0,0,0,0,0,0,0,0,0,0,0,0,0,0,0,0,0,0,0,0,0,0,0,0,0,0,0,0,0,0,0,0,0,0,0,0,0,0,0,0,0,0,0,0,0,0,0,0,0,0,0,0,0,0,3.5064,3.5063,0,3.4995,3.4994,3.4993,3.4932,3.4931,3.493,3.493,3.4854,3.4853,3.4852,0,0,0,0,0,0,0,0,0,0,0,0,0,3.5139,3.5138,3.5064,3.5063,3.5062,3.4995,3.4994,3.4993,3.4932,3.4931,3.493,3.4929,3.4855,3.4853,3.4852,0,0,0,0,0,0,0,0,0,0,0,0,0,3.5092,3.5138,3.5064,3.5024,3.502,3.4995,3.4994,3.4993,3.4932,3.4931,3.493,3.4929,3.4855,3.4853,3.4851,3.486,0,0,3.4845,3.4844,0,0,0,0,0,0,0,0,3.5095,3.5089,3.5031,3.5027,3.5022,3.4971,3.4993,3.4948,3.4932,3.4965,3.493,3.4929,3.4894,3.4888,3.4878,3.4856,3.4853,3.4845,3.4844,3.4843,3.4842,0,0,0,0,0,0,0,3.5098,3.5092,3.5036,3.503,3.5024,3.5008,3.5,3.4984,3.4936,3.4962,3.4958,3.4951,3.4891,3.488,3.4875,3.4852,3.4845,3.4843,3.4842,3.4841,3.4834,3.4835,0,0,0,0,0,0,3.5108,3.5095,3.5039,3.5034,3.5057,3.5007,3.4999,3.4988,3.4936,3.4927,3.4952,3.4948,3.4884,3.4878,3.4873,3.4879,3.4843,3.4841,3.484,3.4833,3.4834,3.4835,0,0,0,0,0,0,3.511,3.5104,3.5041,3.5063,3.5054,3.5007,3.4996,3.4987,3.4976,3.4928,3.4919,3.4949,3.4883,3.4875,3.4864,3.4875,3.484,3.4838,3.4832,3.4833,3.4835,3.4892,0,0,0,0,0,0,3.5112,3.5105,3.5108,3.5064,3.5053,3.5035,3.4997,3.4987,3.4973,3.4968,3.4923,3.4915,3.4881,3.4867,3.4862,3.4872,3.4837,3.483,3.4832,3.4834,3.4889,3.4895,3.4901,0,0,0,0,0,3.5115,3.5126,3.5109,3.5102,3.5057,3.5036,3.503,3.4992,3.4975,3.4977,3.4946,3.4916,3.4875,3.4867,3.486,3.487,3.4829,3.4832,3.4834,3.4886,3.4894,3.4901,0,0,0,0,0,0,3.5171,3.512,3.51,3.5097,3.5072,3.5026,3.5028,3.5002,3.498,3.4975,3.4929,3.4919,3.4912,3.489,3.4881,3.4875,3.4848,3.4849,3.489,3.4897,3.4903,3.4908,3.4835,0,0,0,0,0,3.5184,3.5173,3.5127,3.5129,3.5118,3.5075,3.5065,3.5038,3.5009,3.4998,3.4966,3.4938,3.4918,3.4907,3.4886,3.4886,3.4874,3.4889,3.4895,3.49,3.4901,3.4899,3.4905,3.4843,3.4843,3.4843,0,0,3.5209,3.5179,3.5174,3.514,3.5117,3.5105,3.5066,3.5055,3.5045,3.4995,3.4983,3.4959,3.4924,3.4918,3.4914,3.4899,3.4916,3.4903,3.4908,3.4906,3.4902,3.4908,3.4913,3.4844,3.4844,3.4844,0,0,3.5248,3.5225,3.5224,3.5202,3.5169,3.5141,3.5141,3.5099,3.5081,3.5069,3.5031,3.5018,3.4986,3.4963,3.4947,3.4978,3.4949,3.4973,3.5004,3.5002,3.5007,3.5011,3.5022,3.5026,3.4974,3.4974,3.4974,0,3.5282,3.5264,3.5226,3.5218,3.5203,3.5159,3.5157,3.5138,3.5099,3.5089,3.5074,3.5033,3.5006,3.4994,3.5002,3.4991,3.4988,3.4977,3.501,3.5013,3.5017,3.5026,3.5031,3.4977,3.4977,3.4977,3.4976,0,3.5308,3.5296,3.5299,3.5265,3.5251,3.5246,3.5206,3.5196,3.5171,3.5144,3.5131,3.5098,3.507,3.5065,3.504,3.505,3.5042,3.5019,3.4991,3.5026,3.5035,3.5038,3.4982,3.4981,3.498,3.4979,0,0,3.538,3.5326,3.5327,3.5311,3.5271,3.5261,3.5253,3.5228,3.522,3.5194,3.5186,3.5161,3.5139,3.5121,3.5093,3.5092,3.5119,3.5069,3.5067,3.5079,3.5127,3.5144,3.5149,3.51,3.51,3.5101,3.5129,0,3.5412,3.5398,3.5364,3.536,3.5348,3.5306,3.5299,3.5274,3.5249,3.5234,3.5205,3.5188,3.5161,3.515,3.5147,3.5116,3.5127,3.5114,3.509,3.509,3.51,3.5154,3.5172,3.5201,3.5132,3.5133,3.5133,0,3.5448,3.5427,3.5422,3.5384,3.5377,3.5372,3.5346,3.5333,3.5303,3.5284,3.5265,3.5235,3.5223,3.5198,3.5181,3.5173,3.5161,3.5145,3.5145,3.5141,3.5114,3.515,3.5209,3.5213,3.5138,3.5138,3.5137,0,3.55,3.5471,3.5464,3.5452,3.5407,3.5404,3.5385,3.5354,3.5341,3.5317,3.5308,3.5284,3.527,3.5251,3.5214,3.5199,3.5201,3.5173,3.5185,3.5186,3.5186,3.5187,3.5243,3.518,3.518,3.518,3.518,0,3.554,3.5538,3.5487,3.5483,3.548,3.5441,3.5438,3.5415,3.5388,3.5377,3.5339,3.533,3.5282,3.5267,3.5238,3.5228,3.5222,3.5206,3.5198,3.5209,3.5212,3.5201,3.5198,3.5181,3.5181,3.518,3.518,0,3.5598,3.5564,3.5554,3.5512,3.5502,3.5501,3.5465,3.5459,3.5432,3.542,3.5414,3.5372,3.5352,3.5314,3.5283,3.5263,3.526,3.5246,3.5271,3.5266,3.528,3.5279,3.5331,3.5336,3.527,3.5271,3.5271,0,3.5625,3.5623,3.5582,3.5573,3.5556,3.5542,3.5529,3.549,3.5478,3.5443,3.5441,3.5419,3.5399,3.5369,3.5335,3.5311,3.5296,3.5316,3.5292,3.5303,3.5296,3.5297,3.5296,3.5321,3.5322,3.5323,3.5324,0,3.5676,3.566,3.5644,3.5622,3.5608,3.5588,3.5566,3.5561,3.5516,3.5504,3.5484,3.5469,3.5439,3.5417,3.5388,3.5366,3.5337,3.5332,3.5333,3.5344,3.5358,3.5351,3.5285,3.533,3.533,3.5329,3.5329,3.5329,3.5719,3.5716,3.5687,3.567,3.565,3.563,3.5623,3.5596,3.5579,3.5553,3.553,3.5512,3.5482,3.544,3.5421,3.5405,3.5391,3.5393,3.5394,3.5395,3.54,3.5361,3.54,3.54,3.5399,3.5399,3.5399,0,3.5769,3.5749,3.5733,3.5705,3.5692,3.5667,3.5642,3.5632,3.5617,3.5592,3.5574,3.5551,3.553,3.5494,3.547,3.5464,3.545,3.5459,3.5459,3.5454,3.5413,3.5415,3.5471,3.5471,3.5471,3.5471,3.5471,3.5471,3.5793,3.5786,3.5766,3.5749,3.5728,3.5712,3.5699,3.5681,3.5661,3.5638,3.5621,3.5598,3.5568,3.5541,3.552,3.551,3.5503,3.5516,3.5502,3.5464,3.5457,3.5451,3.5452,3.5515,3.5515,3.5543,3.5544,3.5544]}]]